[[{"header":{"parameterUnit":"m.s-1","parameterCategory":1,"la1":30.2991,"la2":30.254,"lo1":-89.0895,"lo2":-89.0444,"dy":0.0017,"dx":0.0017,"nx":28,"ny":28,"refTime":"2025-05-21T09:00:00:Z","depth":0,"parameterNumber":2,"parameterNumberName":"U-component_of_WINDS"},"data":[0,0,0,0,0,0,0,0,0,0,0,0,0,0,0,0,0,0,0,0,0,0,0,0,0,0,0,0,0,0,0,0,0,0,0,0,0,0,0,0,0,0,0,0,0,0,0,0,0,0,0,0,0,0,0,0,0,0,0.7607,0.7608,0,0.775,0.7751,0.7753,0.7771,0.777,0.7768,0.7767,0.7914,0.7919,0.7924,0,0,0,0,0,0,0,0,0,0,0,0,0,0.735,0.7355,0.7607,0.7609,0.761,0.7749,0.7751,0.7753,0.7771,0.777,0.7768,0.7766,0.7912,0.7918,0.7924,0,0,0,0,0,0,0,0,0,0,0,0,0,0.7474,0.7356,0.7606,0.7636,0.764,0.7749,0.7752,0.7754,0.7772,0.777,0.7768,0.7766,0.791,0.7918,0.7925,0.8015,0,0,0.7949,0.7952,0,0,0,0,0,0,0,0,0.7467,0.7484,0.763,0.7634,0.7639,0.774,0.7715,0.7841,0.7772,0.7722,0.7767,0.7765,0.7858,0.787,0.7901,0.8022,0.8028,0.795,0.7954,0.7958,0.796,0,0,0,0,0,0,0,0.7458,0.7478,0.7663,0.7632,0.7638,0.7642,0.7658,0.7739,0.78,0.7726,0.7728,0.7744,0.786,0.7894,0.7905,0.803,0.795,0.7956,0.7961,0.7964,0.8231,0.8234,0,0,0,0,0,0,0.7444,0.747,0.7659,0.7668,0.7546,0.7649,0.7666,0.771,0.7799,0.781,0.7746,0.7745,0.7881,0.7896,0.791,0.802,0.7958,0.7965,0.797,0.8229,0.8232,0.8234,0,0,0,0,0,0,0.7439,0.7461,0.7653,0.757,0.7594,0.7655,0.7705,0.7714,0.7748,0.7814,0.7825,0.7769,0.788,0.7899,0.7989,0.8026,0.7969,0.7976,0.8226,0.823,0.8233,0.8241,0,0,0,0,0,0,0.7431,0.7459,0.7493,0.757,0.7599,0.7729,0.7707,0.7718,0.7761,0.7761,0.7838,0.7849,0.788,0.7977,0.7996,0.8035,0.7982,0.8223,0.8228,0.8232,0.8238,0.8245,0.8251,0,0,0,0,0,0.7422,0.749,0.7495,0.7518,0.7643,0.7731,0.7747,0.7781,0.7764,0.7799,0.7842,0.7847,0.8019,0.7986,0.8008,0.805,0.8221,0.8226,0.8232,0.8235,0.8244,0.8251,0,0,0,0,0,0,0.7416,0.7501,0.7507,0.7602,0.7659,0.7734,0.7779,0.7789,0.7852,0.7849,0.7889,0.7906,0.7994,0.8031,0.7993,0.8141,0.8118,0.8128,0.8113,0.8122,0.8128,0.8117,0.7988,0,0,0,0,0,0.7425,0.749,0.7561,0.7637,0.7666,0.7718,0.7757,0.7778,0.7839,0.7864,0.7913,0.7972,0.8039,0.8083,0.8149,0.8244,0.8261,0.8284,0.829,0.8295,0.8303,0.8356,0.8367,0.8252,0.8252,0.8252,0,0,0.7446,0.75,0.7538,0.7637,0.7684,0.775,0.7738,0.7808,0.7857,0.7874,0.7962,0.8,0.8069,0.8162,0.8205,0.8195,0.8339,0.8302,0.8305,0.8311,0.8363,0.8374,0.8383,0.8256,0.8255,0.8255,0,0,0.7517,0.7564,0.7633,0.7681,0.7752,0.7786,0.7803,0.7877,0.7903,0.7991,0.8005,0.8065,0.818,0.8228,0.8268,0.8358,0.8365,0.8379,0.8411,0.8462,0.8471,0.848,0.8511,0.8522,0.8386,0.8387,0.8387,0,0.7533,0.7632,0.7668,0.7738,0.7781,0.78,0.787,0.7914,0.8003,0.8033,0.8021,0.8166,0.8213,0.8318,0.834,0.8371,0.8392,0.8369,0.8467,0.8476,0.8484,0.8515,0.8527,0.8388,0.8387,0.8387,0.8387,0,0.7649,0.7718,0.7765,0.7851,0.7899,0.7969,0.8015,0.806,0.8077,0.8113,0.8203,0.8261,0.8338,0.8365,0.8383,0.8472,0.8464,0.8459,0.8437,0.8495,0.8525,0.8537,0.8389,0.8389,0.8388,0.8388,0,0,0.7718,0.7823,0.784,0.7879,0.7959,0.8013,0.8084,0.816,0.8198,0.8259,0.8319,0.8417,0.8413,0.8458,0.8482,0.8527,0.8594,0.8517,0.8519,0.8528,0.8696,0.8698,0.8711,0.86,0.8602,0.8604,0.869,0,0.7797,0.7924,0.7958,0.8065,0.8129,0.8149,0.8211,0.8267,0.8302,0.8362,0.8401,0.8469,0.846,0.8487,0.8533,0.8576,0.8628,0.857,0.8656,0.8659,0.8637,0.8727,0.8729,0.8807,0.8702,0.8704,0.8705,0,0.7906,0.797,0.8083,0.8156,0.8184,0.8239,0.8311,0.8369,0.8433,0.8456,0.8506,0.8526,0.86,0.8575,0.8678,0.8639,0.8676,0.8703,0.8706,0.8715,0.8685,0.8737,0.8833,0.8845,0.8724,0.8722,0.8721,0,0.7944,0.8058,0.8141,0.8174,0.8261,0.8299,0.8337,0.84,0.8443,0.8507,0.8536,0.8607,0.8646,0.8701,0.874,0.8718,0.884,0.8818,0.8861,0.886,0.8885,0.8883,0.8988,0.891,0.891,0.891,0.891,0,0.8029,0.8097,0.8159,0.821,0.8287,0.8327,0.8402,0.8441,0.8497,0.8556,0.8577,0.8632,0.868,0.8741,0.8772,0.8853,0.8871,0.8891,0.8898,0.8888,0.8886,0.8913,0.8908,0.8913,0.8912,0.8912,0.8911,0,0.8083,0.8128,0.8219,0.8294,0.8315,0.8369,0.8433,0.8483,0.852,0.8594,0.8614,0.8671,0.8745,0.8789,0.8882,0.8902,0.8992,0.8997,0.897,0.8973,0.9013,0.9008,0.9138,0.9157,0.9068,0.9069,0.9069,0,0.8133,0.8187,0.8268,0.8309,0.8347,0.8413,0.8458,0.8499,0.8545,0.8623,0.8663,0.8738,0.88,0.8916,0.8967,0.9038,0.9045,0.9085,0.9055,0.9044,0.9044,0.904,0.9046,0.909,0.9091,0.9091,0.9092,0,0.8218,0.8237,0.8301,0.8373,0.8425,0.8484,0.8542,0.8574,0.8625,0.8676,0.8751,0.8799,0.8894,0.8968,0.9044,0.9083,0.9096,0.9101,0.9115,0.9105,0.9087,0.9096,0.8982,0.9098,0.9097,0.9097,0.9096,0.9096,0.8271,0.8319,0.8384,0.8455,0.8503,0.8557,0.8608,0.8651,0.8714,0.8795,0.8816,0.8895,0.8959,0.9062,0.9103,0.9165,0.9159,0.9179,0.9184,0.9188,0.9188,0.9077,0.918,0.9179,0.9179,0.9179,0.9179,0,0.8356,0.8399,0.8463,0.8544,0.8599,0.8607,0.8672,0.8718,0.8787,0.8846,0.8906,0.8993,0.9065,0.9122,0.9196,0.9235,0.9243,0.9253,0.925,0.9259,0.919,0.9171,0.9245,0.9245,0.9245,0.9245,0.9245,0.9245,0.8406,0.8488,0.8515,0.8622,0.8665,0.8742,0.8778,0.8829,0.8876,0.8971,0.9031,0.9068,0.9126,0.9204,0.9271,0.9286,0.9312,0.9321,0.9336,0.9271,0.9264,0.9257,0.9238,0.9326,0.9326,0.94,0.94,0.9401]},{"header":{"parameterUnit":"m.s-1","parameterCategory":1,"la1":30.2991,"la2":30.254,"lo1":-89.0895,"lo2":-89.0444,"dy":0.0017,"dx":0.0017,"nx":28,"ny":28,"refTime":"2025-05-21T09:00:00:Z","depth":0,"parameterNumber":3,"parameterNumberName":"V-component_of_WINDS"},"data":[0,0,0,0,0,0,0,0,0,0,0,0,0,0,0,0,0,0,0,0,0,0,0,0,0,0,0,0,0,0,0,0,0,0,0,0,0,0,0,0,0,0,0,0,0,0,0,0,0,0,0,0,0,0,0,0,0,0,1.1629,1.1628,0,1.1517,1.1515,1.1514,1.1381,1.1379,1.1377,1.1375,1.1258,1.1257,1.1256,0,0,0,0,0,0,0,0,0,0,0,0,0,1.1726,1.1725,1.1629,1.1628,1.1626,1.1517,1.1515,1.1514,1.1382,1.1379,1.1377,1.1375,1.1259,1.1257,1.1256,0,0,0,0,0,0,0,0,0,0,0,0,0,1.1656,1.1724,1.1629,1.1547,1.1539,1.1517,1.1515,1.1513,1.1382,1.1379,1.1376,1.1373,1.1259,1.1257,1.1256,1.1305,0,0,1.125,1.1249,0,0,0,0,0,0,0,0,1.166,1.1652,1.1561,1.1553,1.1543,1.146,1.1506,1.1443,1.1383,1.1442,1.1375,1.1372,1.1328,1.132,1.1306,1.13,1.1294,1.125,1.1249,1.1248,1.1247,0,0,0,0,0,0,0,1.1665,1.1656,1.1584,1.1559,1.1549,1.1515,1.1502,1.1494,1.1403,1.1436,1.1426,1.1415,1.1322,1.1308,1.1302,1.1293,1.125,1.1248,1.1247,1.1246,1.132,1.1322,0,0,0,0,0,0,1.1683,1.1661,1.1588,1.1581,1.1595,1.1516,1.1501,1.149,1.1403,1.1387,1.1418,1.1409,1.1312,1.1304,1.1297,1.1348,1.1248,1.1246,1.1245,1.1317,1.132,1.1323,0,0,0,0,0,0,1.1685,1.1677,1.1592,1.1618,1.1605,1.1517,1.1506,1.1489,1.1474,1.1389,1.1372,1.142,1.131,1.13,1.1304,1.1342,1.1245,1.1244,1.1313,1.1318,1.1322,1.1452,0,0,0,0,0,0,1.1688,1.1679,1.1698,1.162,1.1604,1.1602,1.1508,1.1489,1.1472,1.146,1.1386,1.1371,1.1306,1.1307,1.1302,1.1338,1.1242,1.1309,1.1315,1.132,1.1444,1.1461,1.1475,0,0,0,0,0,1.1692,1.1739,1.1699,1.1691,1.1626,1.1605,1.1596,1.1521,1.1476,1.1493,1.1438,1.1373,1.1339,1.1309,1.1302,1.1338,1.1306,1.1313,1.132,1.1437,1.1457,1.1474,0,0,0,0,0,0,1.1823,1.1727,1.1682,1.1705,1.1664,1.1583,1.1603,1.1545,1.1516,1.1506,1.1414,1.1399,1.1413,1.1376,1.1344,1.138,1.1313,1.1319,1.1405,1.1423,1.1438,1.1447,1.1241,0,0,0,0,0,1.1855,1.1846,1.1762,1.179,1.1772,1.1692,1.1679,1.1626,1.1579,1.1561,1.1506,1.1463,1.1442,1.143,1.1407,1.1438,1.1419,1.1459,1.1474,1.1487,1.1493,1.1506,1.1522,1.1346,1.1346,1.1346,0,0,1.1919,1.1866,1.1866,1.1815,1.1777,1.177,1.1678,1.1674,1.1667,1.156,1.1561,1.1519,1.1464,1.1482,1.1487,1.1451,1.1538,1.1496,1.1507,1.1506,1.1515,1.1531,1.1546,1.1351,1.135,1.1349,0,0,1.2034,1.1993,1.2011,1.1975,1.1919,1.1864,1.1869,1.1796,1.1764,1.1763,1.1682,1.1672,1.1639,1.1603,1.1581,1.168,1.1619,1.1675,1.1756,1.1769,1.1783,1.1794,1.1829,1.1843,1.1681,1.1682,1.1682,0,1.2122,1.2108,1.2028,1.2029,1.2009,1.1912,1.1929,1.1897,1.1836,1.1824,1.1784,1.174,1.1696,1.1703,1.1728,1.1713,1.1714,1.1683,1.1787,1.1798,1.1808,1.184,1.1854,1.1689,1.1688,1.1687,1.1686,0,1.2218,1.221,1.2231,1.2175,1.2157,1.2166,1.2087,1.2078,1.2025,1.1975,1.1974,1.1918,1.1881,1.1879,1.1827,1.1878,1.1858,1.1804,1.1735,1.1833,1.1862,1.1874,1.1699,1.1696,1.1694,1.1692,0,0,1.2412,1.2311,1.2321,1.2293,1.2224,1.2215,1.2219,1.2184,1.2177,1.2138,1.2138,1.2112,1.2062,1.2036,1.1979,1.1991,1.2073,1.1935,1.1933,1.1963,1.2124,1.2165,1.2181,1.2032,1.2034,1.2035,1.2129,0,1.2514,1.2517,1.2444,1.2466,1.2457,1.2364,1.2368,1.2325,1.2277,1.2262,1.2208,1.2191,1.2126,1.211,1.2117,1.2062,1.2104,1.2054,1.203,1.2031,1.2048,1.2196,1.2239,1.2331,1.214,1.2141,1.2143,0,1.2633,1.2601,1.2623,1.2551,1.2545,1.2549,1.251,1.2496,1.2445,1.2409,1.2381,1.2316,1.2314,1.2249,1.2243,1.2211,1.2196,1.2167,1.2169,1.2164,1.2093,1.2195,1.2358,1.2372,1.216,1.2158,1.2157,0,1.2772,1.2734,1.2742,1.2722,1.2639,1.2644,1.2609,1.2555,1.2538,1.2503,1.2491,1.2456,1.2437,1.2411,1.2338,1.2297,1.2341,1.227,1.2311,1.2313,1.2324,1.2325,1.2487,1.2316,1.2316,1.2315,1.2315,0,1.2893,1.291,1.2804,1.2809,1.2824,1.274,1.2757,1.2713,1.2666,1.2659,1.2576,1.2572,1.2476,1.246,1.2403,1.2407,1.2399,1.2369,1.2354,1.2377,1.2381,1.2367,1.2359,1.2319,1.2318,1.2317,1.2317,0,1.3052,1.2981,1.2984,1.2905,1.2885,1.29,1.2831,1.2832,1.2779,1.2772,1.2765,1.2682,1.2659,1.2584,1.2542,1.2504,1.2525,1.2496,1.2543,1.2533,1.2578,1.2575,1.2738,1.2754,1.2573,1.2575,1.2576,0,1.3134,1.3145,1.3067,1.3057,1.3027,1.3012,1.2994,1.2911,1.2895,1.2837,1.2844,1.2815,1.2787,1.2755,1.269,1.2657,1.2626,1.2685,1.2621,1.2643,1.2627,1.2627,1.2627,1.27,1.2702,1.2704,1.2705,0,1.3287,1.3251,1.3229,1.3195,1.3176,1.3144,1.3108,1.3104,1.3011,1.2998,1.2974,1.2953,1.291,1.2881,1.2838,1.28,1.2738,1.2726,1.2734,1.2758,1.2785,1.2771,1.2581,1.2723,1.2721,1.272,1.2719,1.2718,1.3409,1.3414,1.336,1.3338,1.3302,1.327,1.3266,1.3213,1.3192,1.3152,1.3103,1.3085,1.3031,1.2967,1.2934,1.2917,1.2883,1.2895,1.2897,1.2902,1.2913,1.2787,1.2909,1.2908,1.2908,1.2907,1.2907,0,1.3558,1.3519,1.3499,1.3451,1.3433,1.3376,1.3332,1.3321,1.3306,1.3262,1.3237,1.3208,1.318,1.3113,1.3078,1.3077,1.3048,1.3071,1.307,1.3063,1.2945,1.2942,1.3096,1.3096,1.3096,1.3096,1.3096,1.3096,1.3633,1.3639,1.3597,1.3582,1.3542,1.3524,1.3504,1.3474,1.3438,1.3411,1.3387,1.3344,1.329,1.325,1.3221,1.3201,1.3192,1.3226,1.3197,1.3089,1.3071,1.3054,1.305,1.3224,1.3225,1.3315,1.3316,1.3317]}]]